ELEKTRON 1 DEB, 750

Orbit data source: Space-Track

ELEKTRON 1 DEB, 750 is space debris in LEO originally from a launch on Thu, 30 Jan 1964 UTC launched from the Tyuratam Missile And Space Complex (TTMTR). Debris objects in space refer to the collection of defunct objects orbiting the Earth. Examples of debris include non-operational satellites, rocket bodies, and fragments generated from explosions, collisions, or faulty payload assembly.

Loading next visibility...
Identifier
750, 1964-006C
Orbit
LEO
Country
Flag of CISCIS
Related business
Manufacturer
OKB-1
Mission
Spacecraft
Bus & Motor
ADAPTER, Unknown motor
Mass
Unknown
Launch date (UTC)
1964-01-30 (62 years ago)
Launch vehicle
Unknown
Launch site
Tyuratam Missile And Space Complex (TTMTR)
Object type
Payload
Rocket body
Debris
Shape & HBR
Unknown shape, 0.3 m
Radar Cross Section
Medium (>0.1 m² and <1 m²)

Expand to show TLE details & history
Last TLE update: 1 day ago

TLE from 1 day ago
0 ELEKTRON 1 DEB
1 00750U 64006C   25340.68917115  .00021001  00000-0  22442-2 0  9990
2 00750  60.7573  93.3728 1410113 331.8327  21.2800 12.42836859822645
Epoch: 2025-12-06T16:32Z
TLE epoch observation values (Epoch: 2025-12-06T16:32:24.387Z)
Latitude
0.00002°
Longitude
129.55789°
Altitude
487.13 km
Speed
8.095 km/s
True Right ascension
06h 13m 29s
True Declination
0° 00' 00"
Sunlit
Object was in full shadow at epoch
Visualization orbit readout
Latitude
Unknown
Longitude
Unknown
Altitude
Unknown
Speed
Unknown
Apparent Right ascension
Unknown
Apparent Declination
Unknown
Sunlit
N/A
Visualization observer readout
Local Sidereal Time
19:13:50
Azimuth
Unknown
Elevation
Unknown
Doppler factor
Unknown
Orbital elements
Apogee altitude
2,603.816 km
Perigee altitude
383.756 km
Semi-major axis
7,871.923 km
Eccentricity
0.14101
Inclination
60.7573°
RAAN
93.3728°
Arg. of periapsis
331.8327°
True anomaly
28.26812°
Mean anomaly
21.28°
Eccentric anomaly
24.64964°
Mean motion
3.10758 °/min
Orbital period
115.85 mins
BSTAR
0.0022442

Documentation

Showing up to 5 results
|